Location: Krakow
(50.0830°N, 19.9170°E)
Time: 05:23:36
(UTC+02:00)

Tiros 1 - Pass Details

Date: 14 February 2023
Orbit: 627 x 662 km, 48.4° (Epoch: 25 March)

Event Time Altitude Azimuth Distance (km) Brightness Sun altitude
Rises 18:47:22 0° 195° (SSW) 2,905 10.7 -18.3°
Reaches altitude 10° 18:50:39 10° 170° (S) 1,998 9.5 -18.9°
Enters shadow 18:51:38 13° 159° (SSE) 1,833 9.2 -19.0°
Maximum altitude 18:53:04 14° 138° (SE) 1,737 - -19.2°
Drops below altitude 10° 18:55:28 10° 107° (ESE) 2,001 - -19.6°
Sets 18:58:46 0° 82° (E) 2,912 - -20.2°
